This is the latest recevied weather packets stored in our database for station/object AG1T-20. If no packets are shown the sender has not sent any weather packets the latest 10 day(s).
| Time | Temp. | Humidity | Pressure | Rain* | Wind** | Luminosity | Snow |
|---|---|---|---|---|---|---|---|
| 1778065205 | 3.33° C | 76% | 1018.5 hPa | 0 mm | - | 0 W/m² | - |
| 1778064605 | 3.33° C | 75% | 1018.2 hPa | 0 mm | - | 0 W/m² | - |
| 1778064005 | 3.89° C | 74% | 1018.2 hPa | 0 mm | - | 0 W/m² | - |
| 1778063405 | 3.33° C | 74% | 1018.2 hPa | 0 mm | - | 0 W/m² | - |
| 1778062805 | 3.33° C | 77% | 1018.2 hPa | 0 mm | - | 0 W/m² | - |
| 1778062205 | 3.89° C | 76% | 1018.2 hPa | 0 mm | - | 0 W/m² | - |
| 1778061605 | 3.89° C | 74% | 1018.2 hPa | 0 mm | - | 0 W/m² | - |
| 1778061005 | 4.44° C | 72% | 1018.1 hPa | 0 mm | - | 0 W/m² | - |
| 1778060405 | 5° C | 71% | 1018.1 hPa | 0 mm | - | 0 W/m² | - |
| 1778059805 | 5.56° C | 68% | 1018.1 hPa | 0 mm | - | 0 W/m² | - |
| 1778059205 | 5.56° C | 71% | 1018.1 hPa | 0 mm | - | 0 W/m² | - |
| 1778058605 | 6.11° C | 68% | 1018.1 hPa | 0 mm | - | 0 W/m² | - |
| 1778058005 | 6.67° C | 67% | 1018.1 hPa | 0 mm | - | 0 W/m² | - |
| 1778057405 | 6.67° C | 67% | 1017.6 hPa | 0 mm | - | 0 W/m² | - |
| 1778056805 | 7.22° C | 64% | 1017.6 hPa | 0 mm | - | 0 W/m² | - |
| 1778056205 | 7.78° C | 59% | 1017.6 hPa | 0 mm | - | 0 W/m² | - |
| 1778055605 | 7.78° C | 55% | 1017.6 hPa | 0 mm | - | 0 W/m² | - |
| 1778055005 | 7.78° C | 55% | 1017.6 hPa | 0 mm | - | 0 W/m² | - |
| 1778054405 | 8.33° C | 55% | 1017.6 hPa | 0 mm | - | 0 W/m² | - |
| 1778053805 | 8.33° C | 54% | 1015.9 hPa | 0 mm | - | 0 W/m² | - |
| 1778053205 | 7.78° C | 57% | 1015.9 hPa | 0 mm | - | 0 W/m² | - |
| 1778052605 | 8.89° C | 55% | 1015.9 hPa | 0 mm | - | 0 W/m² | - |
| 1778052005 | 9.44° C | 53% | 1015.9 hPa | 0 mm | - | 0 W/m² | - |
| 1778051405 | 8.33° C | 60% | 1015.9 hPa | 0 mm | - | 0 W/m² | - |
| 1778050805 | 7.78° C | 61% | 1015.9 hPa | 0 mm | - | 0 W/m² | - |
* Rain latest hour (hover to see other rain measurements)
** Current wind speed in m/s (hover to see current wind gust speed)